Home   Weather   Weißenfels   Past weeks

Flag for Germany Past Weather in Weißenfels, Saxony-Anhalt, Germany — Yesterday and Last 2 Weeks

Now
21 °F

Ice fog.


Feels Like: 21 °F
Forecast: 18 / 24 °F
Wind: 1 mph from North

Location: Leipzig-Schkeuditz

Current Time: Jan 22, 2017 at 5:52:52 pm

Latest Report: Jan 22, 2017 at 5:20 pm


Visibility: 0 mi

Pressure: 30.27 "Hg

Humidity: 100%

Dew Point: 21 °F

Location of WeißenfelsLocation

Past Weather in Weißenfels — Graph

°F

Weißenfels Temperature Yesterday

Maximum temperature yesterday: 34 °F (at 11:50 am)
Minimum temperature yesterday: 19 °F (at 4:50 am)
Average temperature yesterday: 26 °F

High & Low Weather Summary for the Past Weeks

 TemperatureHumidityPressure
High39 °F (Jan 12, 11:20 am)100% (Jan 7, 6:50 pm)30.74 "Hg (Jan 7, 6:50 pm)
Low16 °F (Jan 19, 7:20 pm)64% (Jan 10, 1:20 pm)29.00 "Hg (Jan 13, 6:20 am)
Average29 °F89%30.16 "Hg
* Reported Jan 7 4:20 pm — Jan 22 4:50 pm, Weißenfels, Weather by CustomWeather, © 2017

Note: Actual official high and low records may vary slightly from our data, if they occured in-between our weather recording intervals... More about our weather records

Advertising

Weißenfels Weather History for the Previous 24 Hours

Scroll right to see more
 ConditionsComfort  
Time TempWeatherWind HumidityBarometerVisibility
4:50 pm
Sun, Jan 22
23 °FIce fog.1 mph93%30.30 "Hg0 mi
4:20 pm23 °FIce fog.1 mph93%30.30 "Hg1 mi
3:50 pm23 °FIce fog.2 mph93%30.30 "Hg1 mi
3:20 pm23 °FIce fog.1 mph93%30.30 "Hg0 mi
2:50 pm23 °FIce fog.2 mph93%30.30 "Hg0 mi
2:20 pm21 °FIce fog.1 mph100%30.30 "Hg0 mi
1:50 pm21 °FIce fog.2 mph100%30.30 "Hg0 mi
1:20 pm21 °FIce fog.1 mph100%30.33 "Hg0 mi
12:50 pm21 °FIce fog.2 mph93%30.33 "Hg0 mi
12:20 pm21 °FIce fog.1 mph93%30.33 "Hg0 mi
11:50 am21 °FIce fog.1 mph93%30.36 "Hg0 mi
11:20 am19 °FIce fog.2 mph100%30.36 "Hg0 mi
10:50 am19 °FIce fog.2 mph93%30.36 "Hg0 mi
10:20 am19 °FIce fog.1 mph93%30.36 "Hg0 mi
9:50 am18 °FIce fog.1 mph100%30.36 "Hg0 mi
9:20 am18 °FIce fog.1 mph100%30.36 "Hg0 mi
8:50 am18 °FIce fog.1 mph93%30.36 "Hg0 mi
8:20 am18 °FIce fog.No wind93%30.36 "Hg0 mi
7:50 am18 °FIce fog.2 mph93%30.36 "Hg0 mi
7:20 am18 °FIce fog.1 mph93%30.36 "Hg0 mi
6:50 am18 °FIce fog.1 mph100%30.36 "Hg0 mi
6:20 am19 °FIce fog.2 mph93%30.36 "Hg0 mi
5:50 am19 °FIce fog.2 mph93%30.36 "Hg0 mi
5:20 am19 °FIce fog.1 mph93%30.36 "Hg0 mi
4:50 am19 °FIce fog.1 mph93%30.36 "Hg0 mi
4:20 am18 °FIce fog.1 mph93%30.39 "Hg0 mi
3:50 am16 °FIce fog.2 mph93%30.39 "Hg0 mi
3:20 am18 °FIce fog.2 mph93%30.39 "Hg0 mi
2:50 am18 °FIce fog.2 mph93%30.39 "Hg1 mi
2:20 am19 °FIce fog.6 mph93%30.39 "Hg0 mi
1:50 am19 °FIce fog.5 mph93%30.39 "Hg0 mi
1:20 am18 °FIce fog.5 mph93%30.39 "Hg1 mi
12:50 am18 °FIce fog.3 mph100%30.42 "Hg1 mi
12:20 am19 °FIce fog.7 mph93%30.42 "Hg0 mi
11:50 pm
Sat, Jan 21
19 °FIce fog.8 mph100%30.42 "Hg0 mi
11:20 pm21 °FIce fog.6 mph100%30.42 "Hg0 mi
10:50 pm21 °FIce fog.7 mph100%30.42 "Hg0 mi
10:20 pm23 °FIce fog.7 mph100%30.42 "Hg1 mi
9:50 pm25 °FIce fog.7 mph93%30.42 "Hg1 mi
9:20 pm27 °FIce fog.6 mph93%30.42 "Hg2 mi
8:50 pm25 °FIce fog.7 mph93%30.42 "Hg3 mi
8:20 pm27 °FClear.8 mph93%30.42 "Hg4 mi
7:50 pm27 °FClear.7 mph93%30.45 "Hg5 mi
7:20 pm25 °FClear.6 mph93%30.45 "Hg10 mi
6:50 pm27 °FClear.6 mph86%30.45 "Hg10 mi
6:20 pm28 °FClear.6 mph86%30.45 "Hg10 mi
5:50 pm28 °FClear.5 mph93%30.45 "Hg10 mi
5:20 pm28 °FClear.6 mph86%30.45 "Hg10 mi
Weather by CustomWeather, © 2017

See weather overviewHow to use our weather pages